Year,Month,Day,Hour,Minute,Value (Times are PST for temperature in C)
2016,06,05,00,00,15.70
2016,06,05,00,01,15.70
2016,06,05,00,02,15.60
2016,06,05,00,03,15.60
2016,06,05,00,04,15.60
2016,06,05,00,05,15.60
2016,06,05,00,06,15.60
2016,06,05,00,07,15.60
2016,06,05,00,08,15.60
2016,06,05,00,09,15.50
2016,06,05,00,10,15.50
2016,06,05,00,11,15.50
2016,06,05,00,12,15.50
2016,06,05,00,13,15.50
2016,06,05,00,14,15.50
2016,06,05,00,15,15.40
2016,06,05,00,16,15.40
2016,06,05,00,17,15.40
2016,06,05,00,18,15.40
2016,06,05,00,19,15.40
2016,06,05,00,20,15.40
2016,06,05,00,21,15.40
2016,06,05,00,22,15.40
2016,06,05,00,23,15.40
2016,06,05,00,24,15.40
2016,06,05,00,25,15.40
2016,06,05,00,26,15.40
2016,06,05,00,27,15.30
2016,06,05,00,28,15.30
2016,06,05,00,29,15.30
2016,06,05,00,30,15.30
2016,06,05,00,31,15.30
2016,06,05,00,32,15.30
2016,06,05,00,33,15.30
2016,06,05,00,34,15.30
2016,06,05,00,35,15.30
2016,06,05,00,36,15.30
2016,06,05,00,37,15.30
2016,06,05,00,38,15.30
2016,06,05,00,39,15.20
2016,06,05,00,40,15.20
2016,06,05,00,41,15.20
2016,06,05,00,42,15.20
2016,06,05,00,43,15.20
2016,06,05,00,44,15.20
2016,06,05,00,45,15.10
2016,06,05,00,46,15.10
2016,06,05,00,47,15.10
2016,06,05,00,48,15.10
2016,06,05,00,49,15.00
2016,06,05,00,50,15.00
2016,06,05,00,51,15.00
2016,06,05,00,52,15.00
2016,06,05,00,53,15.00
2016,06,05,00,54,15.00
2016,06,05,00,55,15.00
2016,06,05,00,56,15.00
2016,06,05,00,57,15.00
2016,06,05,00,58,15.00
2016,06,05,00,59,15.00
2016,06,05,01,00,15.00
2016,06,05,01,01,15.00
2016,06,05,01,02,15.00
2016,06,05,01,03,15.00
2016,06,05,01,04,15.00
2016,06,05,01,05,15.00
2016,06,05,01,06,15.00
2016,06,05,01,07,15.00
2016,06,05,01,08,15.00
2016,06,05,01,09,15.00
2016,06,05,01,10,15.00
2016,06,05,01,11,15.00
2016,06,05,01,12,15.00
2016,06,05,01,13,15.00
2016,06,05,01,14,15.00
2016,06,05,01,15,15.00
2016,06,05,01,16,15.00
2016,06,05,01,17,15.00
2016,06,05,01,18,15.00
2016,06,05,01,19,15.00
2016,06,05,01,20,15.00
2016,06,05,01,21,15.00
2016,06,05,01,22,15.00
2016,06,05,01,23,15.00
2016,06,05,01,24,15.00
2016,06,05,01,25,15.00
2016,06,05,01,26,15.00
2016,06,05,01,27,15.00
2016,06,05,01,28,15.00
2016,06,05,01,29,15.00
2016,06,05,01,30,15.00
2016,06,05,01,31,15.00
2016,06,05,01,32,15.00
2016,06,05,01,33,15.00
2016,06,05,01,34,15.00
2016,06,05,01,35,14.90
2016,06,05,01,36,15.00
2016,06,05,01,37,14.90
2016,06,05,01,38,14.90
2016,06,05,01,39,14.90
2016,06,05,01,40,14.90
2016,06,05,01,41,14.90
2016,06,05,01,42,14.90
2016,06,05,01,43,14.80
2016,06,05,01,44,14.80
2016,06,05,01,45,14.80
2016,06,05,01,46,14.80
2016,06,05,01,47,14.80
2016,06,05,01,48,14.80
2016,06,05,01,49,14.80
2016,06,05,01,50,14.80
2016,06,05,01,51,14.80
2016,06,05,01,52,14.80
2016,06,05,01,53,14.80
2016,06,05,01,54,14.80
2016,06,05,01,55,14.80
2016,06,05,01,56,14.80
2016,06,05,01,57,14.80
2016,06,05,01,58,14.80
2016,06,05,01,59,14.80
2016,06,05,02,00,14.80
2016,06,05,02,01,14.80
2016,06,05,02,02,14.80
2016,06,05,02,03,14.80
2016,06,05,02,04,14.80
2016,06,05,02,05,14.80
2016,06,05,02,06,14.80
2016,06,05,02,07,14.80
2016,06,05,02,08,14.80
2016,06,05,02,09,14.80
2016,06,05,02,10,14.80
2016,06,05,02,11,14.80
2016,06,05,02,12,14.80
2016,06,05,02,13,14.80
2016,06,05,02,14,14.70
2016,06,05,02,15,14.70
2016,06,05,02,16,14.70
2016,06,05,02,17,14.70
2016,06,05,02,18,14.70
2016,06,05,02,19,14.70
2016,06,05,02,20,14.70
2016,06,05,02,21,14.70
2016,06,05,02,22,14.70
2016,06,05,02,23,14.70
2016,06,05,02,24,14.70
2016,06,05,02,25,14.70
2016,06,05,02,26,14.70
2016,06,05,02,27,14.70
2016,06,05,02,28,14.70
2016,06,05,02,29,14.70
2016,06,05,02,30,14.70
2016,06,05,02,31,14.60
2016,06,05,02,32,14.60
2016,06,05,02,33,14.60
2016,06,05,02,34,14.60
2016,06,05,02,35,14.60
2016,06,05,02,36,14.60
2016,06,05,02,37,14.60
2016,06,05,02,38,14.60
2016,06,05,02,39,14.60
2016,06,05,02,40,14.60
2016,06,05,02,41,14.60
2016,06,05,02,42,14.50
2016,06,05,02,43,14.50
2016,06,05,02,44,14.50
2016,06,05,02,45,14.50
2016,06,05,02,46,14.50
2016,06,05,02,47,14.40
2016,06,05,02,48,14.40
2016,06,05,02,49,14.40
2016,06,05,02,50,14.40
2016,06,05,02,51,14.40
2016,06,05,02,52,14.40
2016,06,05,02,53,14.40
2016,06,05,02,54,14.40
2016,06,05,02,55,14.40
2016,06,05,02,56,14.40
2016,06,05,02,57,14.40
2016,06,05,02,58,14.30
2016,06,05,02,59,14.30
2016,06,05,03,00,14.30
2016,06,05,03,01,14.30
2016,06,05,03,02,14.30
2016,06,05,03,03,14.30
2016,06,05,03,04,14.30
2016,06,05,03,05,14.30
2016,06,05,03,06,14.30
2016,06,05,03,07,14.30
2016,06,05,03,08,14.30
2016,06,05,03,09,14.30
2016,06,05,03,10,14.30
2016,06,05,03,11,14.30
2016,06,05,03,12,14.20
2016,06,05,03,13,14.20
2016,06,05,03,14,14.20
2016,06,05,03,15,14.20
2016,06,05,03,16,14.20
2016,06,05,03,17,14.20
2016,06,05,03,18,14.20
2016,06,05,03,19,14.20
2016,06,05,03,20,14.20
2016,06,05,03,21,14.20
2016,06,05,03,22,14.20
2016,06,05,03,23,14.20
2016,06,05,03,24,14.20
2016,06,05,03,25,14.20
2016,06,05,03,26,14.20
2016,06,05,03,27,14.20
2016,06,05,03,28,14.20
2016,06,05,03,29,14.20
2016,06,05,03,30,14.20
2016,06,05,03,31,14.20
2016,06,05,03,32,14.20
2016,06,05,03,33,14.10
2016,06,05,03,34,14.10
2016,06,05,03,35,14.10
2016,06,05,03,36,14.10
2016,06,05,03,37,14.10
2016,06,05,03,38,14.10
2016,06,05,03,39,14.10
2016,06,05,03,40,14.10
2016,06,05,03,41,14.10
2016,06,05,03,42,14.10
2016,06,05,03,43,14.10
2016,06,05,03,44,14.10
2016,06,05,03,45,14.00
2016,06,05,03,46,14.00
2016,06,05,03,47,14.00
2016,06,05,03,48,14.00
2016,06,05,03,49,14.00
2016,06,05,03,50,14.00
2016,06,05,03,51,14.00
2016,06,05,03,52,14.00
2016,06,05,03,53,14.00
2016,06,05,03,54,14.00
2016,06,05,03,55,14.00
2016,06,05,03,56,14.00
2016,06,05,03,57,13.90
2016,06,05,03,58,13.90
2016,06,05,03,59,13.90
2016,06,05,04,00,13.90
2016,06,05,04,01,13.90
2016,06,05,04,02,13.90
2016,06,05,04,03,13.90
2016,06,05,04,04,13.90
2016,06,05,04,05,13.90
2016,06,05,04,06,13.90
2016,06,05,04,07,13.90
2016,06,05,04,08,13.80
2016,06,05,04,09,13.80
2016,06,05,04,10,13.80
2016,06,05,04,11,13.80
2016,06,05,04,12,13.80
2016,06,05,04,13,13.80
2016,06,05,04,14,13.80
2016,06,05,04,15,13.80
2016,06,05,04,16,13.80
2016,06,05,04,17,13.80
2016,06,05,04,18,13.70
2016,06,05,04,19,13.70
2016,06,05,04,20,13.70
2016,06,05,04,21,13.70
2016,06,05,04,22,13.70
2016,06,05,04,23,13.70
2016,06,05,04,24,13.70
2016,06,05,04,25,13.70
2016,06,05,04,26,13.70
2016,06,05,04,27,13.70
2016,06,05,04,28,13.70
2016,06,05,04,29,13.70
2016,06,05,04,30,13.70
2016,06,05,04,31,13.70
2016,06,05,04,32,13.70
2016,06,05,04,33,13.70
2016,06,05,04,34,13.60
2016,06,05,04,35,13.60
2016,06,05,04,36,13.60
2016,06,05,04,37,13.60
2016,06,05,04,38,13.60
2016,06,05,04,39,13.60
2016,06,05,04,40,13.60
2016,06,05,04,41,13.60
2016,06,05,04,42,13.60
2016,06,05,04,43,13.60
2016,06,05,04,44,13.60
2016,06,05,04,45,13.60
2016,06,05,04,46,13.50
2016,06,05,04,47,13.50
2016,06,05,04,48,13.50
2016,06,05,04,49,13.50
2016,06,05,04,50,13.50
2016,06,05,04,51,13.50
2016,06,05,04,52,13.40
2016,06,05,04,53,13.40
2016,06,05,04,54,13.40
2016,06,05,04,55,13.40
2016,06,05,04,56,13.40
2016,06,05,04,57,13.40
2016,06,05,04,58,13.40
2016,06,05,04,59,13.40
2016,06,05,05,00,13.40
2016,06,05,05,01,13.30
2016,06,05,05,02,13.30
2016,06,05,05,03,13.30
2016,06,05,05,04,13.30
2016,06,05,05,05,13.30
2016,06,05,05,06,13.30
2016,06,05,05,07,13.30
2016,06,05,05,08,13.30
2016,06,05,05,09,13.20
2016,06,05,05,10,13.20
2016,06,05,05,11,13.20
2016,06,05,05,12,13.20
2016,06,05,05,13,13.20
2016,06,05,05,14,13.20
2016,06,05,05,15,13.20
2016,06,05,05,16,13.20
2016,06,05,05,17,13.20
2016,06,05,05,18,13.20
2016,06,05,05,19,13.20
2016,06,05,05,20,13.20
2016,06,05,05,21,13.20
2016,06,05,05,22,13.10
2016,06,05,05,23,13.10
2016,06,05,05,24,13.10
2016,06,05,05,25,13.10
2016,06,05,05,26,13.10
2016,06,05,05,27,13.10
2016,06,05,05,28,13.10
2016,06,05,05,29,13.10
2016,06,05,05,30,13.10
2016,06,05,05,31,13.10
2016,06,05,05,32,13.10
2016,06,05,05,33,13.10
2016,06,05,05,34,13.10
2016,06,05,05,35,13.10
2016,06,05,05,36,13.10
2016,06,05,05,37,13.10
2016,06,05,05,38,13.10
2016,06,05,05,39,13.10
2016,06,05,05,40,13.10
2016,06,05,05,41,13.10
2016,06,05,05,42,13.10
2016,06,05,05,43,13.10
2016,06,05,05,44,13.10
2016,06,05,05,45,13.10
2016,06,05,05,46,13.10
2016,06,05,05,47,13.10
2016,06,05,05,48,13.10
2016,06,05,05,49,13.10
2016,06,05,05,50,13.10
2016,06,05,05,51,13.10
2016,06,05,05,52,13.10
2016,06,05,05,53,13.10
2016,06,05,05,54,13.10
2016,06,05,05,55,13.10
2016,06,05,05,56,13.10
2016,06,05,05,57,13.10
2016,06,05,05,58,13.10
2016,06,05,05,59,13.10
2016,06,05,06,00,13.10
2016,06,05,06,01,13.10
2016,06,05,06,02,13.10
2016,06,05,06,03,13.10
2016,06,05,06,04,13.10
2016,06,05,06,05,13.10
2016,06,05,06,06,13.10
2016,06,05,06,07,13.10
2016,06,05,06,08,13.10
2016,06,05,06,09,13.10
2016,06,05,06,10,13.20
2016,06,05,06,11,13.20
2016,06,05,06,12,13.20
2016,06,05,06,13,13.20
2016,06,05,06,14,13.20
2016,06,05,06,15,13.20
2016,06,05,06,16,13.20
2016,06,05,06,17,13.20
2016,06,05,06,18,13.20
2016,06,05,06,19,13.20
2016,06,05,06,20,13.20
2016,06,05,06,21,13.20
2016,06,05,06,22,13.30
2016,06,05,06,23,13.30
2016,06,05,06,24,13.30
2016,06,05,06,25,13.30
2016,06,05,06,26,13.30
2016,06,05,06,27,13.30
2016,06,05,06,28,13.30
2016,06,05,06,29,13.30
2016,06,05,06,30,13.30
2016,06,05,06,31,13.30
2016,06,05,06,32,13.40
2016,06,05,06,33,13.40
2016,06,05,06,34,13.40
2016,06,05,06,35,13.40
2016,06,05,06,36,13.40
2016,06,05,06,37,13.40
2016,06,05,06,38,13.40
2016,06,05,06,39,13.40
2016,06,05,06,40,13.40
2016,06,05,06,41,13.50
2016,06,05,06,42,13.50
2016,06,05,06,43,13.50
2016,06,05,06,44,13.50
2016,06,05,06,45,13.60
2016,06,05,06,46,13.60
2016,06,05,06,47,13.60
2016,06,05,06,48,13.60
2016,06,05,06,49,13.60
2016,06,05,06,50,13.60
2016,06,05,06,51,13.70
2016,06,05,06,52,13.70
2016,06,05,06,53,13.70
2016,06,05,06,54,13.70
2016,06,05,06,55,13.80
2016,06,05,06,56,13.80
2016,06,05,06,57,13.80
2016,06,05,06,58,13.80
2016,06,05,06,59,13.80
2016,06,05,07,00,13.90
2016,06,05,07,01,13.90
2016,06,05,07,02,13.90
2016,06,05,07,03,14.00
2016,06,05,07,04,14.00
2016,06,05,07,05,14.10
2016,06,05,07,06,14.10
2016,06,05,07,07,14.10
2016,06,05,07,08,14.20
2016,06,05,07,09,14.20
2016,06,05,07,10,14.30
2016,06,05,07,11,14.30
2016,06,05,07,12,14.40
2016,06,05,07,13,14.40
2016,06,05,07,14,14.50
2016,06,05,07,15,14.60
2016,06,05,07,16,14.60
2016,06,05,07,17,14.70
2016,06,05,07,18,14.80
2016,06,05,07,19,14.90
2016,06,05,07,20,15.00
2016,06,05,07,21,15.00
2016,06,05,07,22,15.10
2016,06,05,07,23,15.20
2016,06,05,07,24,15.40
2016,06,05,07,25,15.50
2016,06,05,07,26,15.70
2016,06,05,07,27,15.80
2016,06,05,07,28,16.00
2016,06,05,07,29,16.20
2016,06,05,07,30,16.40
2016,06,05,07,31,16.50
2016,06,05,07,32,16.70
2016,06,05,07,33,16.90
2016,06,05,07,34,17.10
2016,06,05,07,35,17.30
2016,06,05,07,36,17.50
2016,06,05,07,37,17.60
2016,06,05,07,38,17.90
2016,06,05,07,39,18.10
2016,06,05,07,40,18.20
2016,06,05,07,41,18.40
2016,06,05,07,42,18.60
2016,06,05,07,43,18.80
2016,06,05,07,44,18.80
2016,06,05,07,45,19.00
2016,06,05,07,46,19.40
2016,06,05,07,47,19.70
2016,06,05,07,48,19.90
2016,06,05,07,49,20.10
2016,06,05,07,50,20.30
2016,06,05,07,51,20.50
2016,06,05,07,52,20.70
2016,06,05,07,53,20.90
2016,06,05,07,54,21.10
2016,06,05,07,55,21.30
2016,06,05,07,56,21.50
2016,06,05,07,57,21.70
2016,06,05,07,58,21.90
2016,06,05,07,59,22.20
2016,06,05,08,00,22.40
2016,06,05,08,01,22.60
2016,06,05,08,02,22.80
2016,06,05,08,03,23.00
2016,06,05,08,04,23.10
2016,06,05,08,05,23.20
2016,06,05,08,06,23.30
2016,06,05,08,07,23.40
2016,06,05,08,08,23.50
2016,06,05,08,09,23.60
2016,06,05,08,10,23.60
2016,06,05,08,11,23.70
2016,06,05,08,12,23.70
2016,06,05,08,13,23.70
2016,06,05,08,14,23.60
2016,06,05,08,15,23.60
2016,06,05,08,16,23.60
2016,06,05,08,17,23.60
2016,06,05,08,18,23.60
2016,06,05,08,19,23.60
2016,06,05,08,20,23.50
2016,06,05,08,21,23.50
2016,06,05,08,22,23.40
2016,06,05,08,23,23.50
2016,06,05,08,24,23.50
2016,06,05,08,25,23.60
2016,06,05,08,26,23.70
2016,06,05,08,27,23.90
2016,06,05,08,28,24.00
2016,06,05,08,29,24.10
2016,06,05,08,30,24.20
2016,06,05,08,31,24.20
2016,06,05,08,32,24.30
2016,06,05,08,33,24.40
2016,06,05,08,34,24.50
2016,06,05,08,35,24.50
2016,06,05,08,36,24.60
2016,06,05,08,37,24.70
2016,06,05,08,38,24.80
2016,06,05,08,39,24.80
2016,06,05,08,40,24.90
2016,06,05,08,41,24.90
2016,06,05,08,42,24.90
2016,06,05,08,43,25.00
2016,06,05,08,44,25.00
2016,06,05,08,45,25.10
2016,06,05,08,46,25.10
2016,06,05,08,47,25.20
2016,06,05,08,48,25.20
2016,06,05,08,49,25.20
2016,06,05,08,50,25.30
2016,06,05,08,51,25.30
2016,06,05,08,52,25.40
2016,06,05,08,53,25.50
2016,06,05,08,54,25.60
2016,06,05,08,55,25.60
2016,06,05,08,56,25.70
2016,06,05,08,57,25.80
2016,06,05,08,58,25.80
2016,06,05,08,59,25.90
2016,06,05,09,00,25.90
2016,06,05,09,01,25.90
2016,06,05,09,02,25.90
2016,06,05,09,03,25.90
2016,06,05,09,04,25.90
2016,06,05,09,05,25.90
2016,06,05,09,06,25.80
2016,06,05,09,07,25.80
2016,06,05,09,08,25.70
2016,06,05,09,09,25.60
2016,06,05,09,10,25.60
2016,06,05,09,11,25.50
2016,06,05,09,12,25.50
2016,06,05,09,13,25.50
2016,06,05,09,14,25.40
2016,06,05,09,15,25.40
2016,06,05,09,16,25.40
2016,06,05,09,17,25.40
2016,06,05,09,18,25.40
2016,06,05,09,19,25.40
2016,06,05,09,20,25.40
2016,06,05,09,21,25.40
2016,06,05,09,22,25.40
2016,06,05,09,23,25.40
2016,06,05,09,24,25.40
2016,06,05,09,25,25.30
2016,06,05,09,26,25.30
2016,06,05,09,27,25.30
2016,06,05,09,28,25.30
2016,06,05,09,29,25.30
2016,06,05,09,30,25.30
2016,06,05,09,31,25.30
2016,06,05,09,32,25.30
2016,06,05,09,33,25.40
2016,06,05,09,34,25.40
2016,06,05,09,35,25.50
2016,06,05,09,36,25.60
2016,06,05,09,37,25.60
2016,06,05,09,38,25.60
2016,06,05,09,39,25.60
2016,06,05,09,40,25.60
2016,06,05,09,41,25.70
2016,06,05,09,42,25.70
2016,06,05,09,43,25.70
2016,06,05,09,44,25.80
2016,06,05,09,45,25.80
2016,06,05,09,46,25.80
2016,06,05,09,47,25.80
2016,06,05,09,48,25.80
2016,06,05,09,49,25.90
2016,06,05,09,50,25.90
2016,06,05,09,51,25.90
2016,06,05,09,52,26.00
2016,06,05,09,53,26.10
2016,06,05,09,54,26.10
2016,06,05,09,55,26.10
2016,06,05,09,56,26.10
2016,06,05,09,57,26.20
2016,06,05,09,58,26.20
2016,06,05,09,59,26.20
2016,06,05,10,00,26.30
2016,06,05,10,01,26.40
2016,06,05,10,02,26.50
2016,06,05,10,03,26.60
2016,06,05,10,04,26.80
2016,06,05,10,05,26.80
2016,06,05,10,06,26.90
2016,06,05,10,07,26.90
2016,06,05,10,08,27.00
2016,06,05,10,09,27.10
2016,06,05,10,10,27.10
2016,06,05,10,11,27.20
2016,06,05,10,12,27.20
2016,06,05,10,13,27.20
2016,06,05,10,14,27.20
2016,06,05,10,15,27.10
2016,06,05,10,16,27.10
2016,06,05,10,17,27.10
2016,06,05,10,18,27.10
2016,06,05,10,19,27.10
2016,06,05,10,20,27.10
2016,06,05,10,21,27.20
2016,06,05,10,22,27.20
2016,06,05,10,23,27.20
2016,06,05,10,24,27.20
2016,06,05,10,25,27.10
2016,06,05,10,26,27.00
2016,06,05,10,27,27.00
2016,06,05,10,28,26.90
2016,06,05,10,29,26.80
2016,06,05,10,30,26.80
2016,06,05,10,31,26.80
2016,06,05,10,32,26.80
2016,06,05,10,33,26.80
2016,06,05,10,34,26.80
2016,06,05,10,35,26.80
2016,06,05,10,36,26.70
2016,06,05,10,37,26.70
2016,06,05,10,38,26.70
2016,06,05,10,39,26.70
2016,06,05,10,40,26.80
2016,06,05,10,41,26.80
2016,06,05,10,42,26.90
2016,06,05,10,43,26.90
2016,06,05,10,44,27.00
2016,06,05,10,45,27.00
2016,06,05,10,46,27.00
2016,06,05,10,47,27.10
2016,06,05,10,48,27.10
2016,06,05,10,49,27.20
2016,06,05,10,50,27.30
2016,06,05,10,51,27.30
2016,06,05,10,52,27.40
2016,06,05,10,53,27.40
2016,06,05,10,54,27.50
2016,06,05,10,55,27.60
2016,06,05,10,56,27.60
2016,06,05,10,57,27.60
2016,06,05,10,58,27.70
2016,06,05,10,59,27.70
2016,06,05,11,00,27.70
2016,06,05,11,01,27.80
2016,06,05,11,02,27.80
2016,06,05,11,03,27.90
2016,06,05,11,04,27.90
2016,06,05,11,05,28.00
2016,06,05,11,06,28.00
2016,06,05,11,07,28.10
2016,06,05,11,08,28.10
2016,06,05,11,09,28.10
2016,06,05,11,10,28.20
2016,06,05,11,11,28.20
2016,06,05,11,12,28.20
2016,06,05,11,13,28.20
2016,06,05,11,14,28.10
2016,06,05,11,15,28.10
2016,06,05,11,16,28.10
2016,06,05,11,17,28.20
2016,06,05,11,18,28.20
2016,06,05,11,19,28.20
2016,06,05,11,20,28.20
2016,06,05,11,21,28.20
2016,06,05,11,22,28.30
2016,06,05,11,23,28.30
2016,06,05,11,24,28.30
2016,06,05,11,25,28.40
2016,06,05,11,26,28.40
2016,06,05,11,27,28.50
2016,06,05,11,28,28.50
2016,06,05,11,29,28.60
2016,06,05,11,30,28.70
2016,06,05,11,31,28.70
2016,06,05,11,32,28.70
2016,06,05,11,33,28.70
2016,06,05,11,34,28.70
2016,06,05,11,35,28.60
2016,06,05,11,36,28.60
2016,06,05,11,37,28.60
2016,06,05,11,38,28.60
2016,06,05,11,39,28.70
2016,06,05,11,40,28.70
2016,06,05,11,41,28.70
2016,06,05,11,42,28.70
2016,06,05,11,43,28.70
2016,06,05,11,44,28.80
2016,06,05,11,45,28.80
2016,06,05,11,46,28.80
2016,06,05,11,47,28.80
2016,06,05,11,48,28.80
2016,06,05,11,49,28.90
2016,06,05,11,50,28.90
2016,06,05,11,51,29.00
2016,06,05,11,52,29.10
2016,06,05,11,53,29.10
2016,06,05,11,54,29.10
2016,06,05,11,55,29.20
2016,06,05,11,56,29.20
2016,06,05,11,57,29.20
2016,06,05,11,58,29.10
2016,06,05,11,59,29.00
2016,06,05,12,00,28.90
2016,06,05,12,01,28.80
2016,06,05,12,02,28.80
2016,06,05,12,03,28.70
2016,06,05,12,04,28.70
2016,06,05,12,05,28.70
2016,06,05,12,06,28.70
2016,06,05,12,07,28.70
2016,06,05,12,08,28.70
2016,06,05,12,09,28.80
2016,06,05,12,10,28.80
2016,06,05,12,11,28.80
2016,06,05,12,12,28.80
2016,06,05,12,13,28.90
2016,06,05,12,14,28.90
2016,06,05,12,15,28.90
2016,06,05,12,16,29.00
2016,06,05,12,17,29.00
2016,06,05,12,18,29.10
2016,06,05,12,19,29.10
2016,06,05,12,20,29.10
2016,06,05,12,21,29.10
2016,06,05,12,22,29.10
2016,06,05,12,23,29.10
2016,06,05,12,24,29.10
2016,06,05,12,25,29.00
2016,06,05,12,26,29.00
2016,06,05,12,27,29.10
2016,06,05,12,28,29.10
2016,06,05,12,29,29.10
2016,06,05,12,30,29.20
2016,06,05,12,31,29.20
2016,06,05,12,32,29.30
2016,06,05,12,33,29.40
2016,06,05,12,34,29.50
2016,06,05,12,35,29.50
2016,06,05,12,36,29.50
2016,06,05,12,37,29.60
2016,06,05,12,38,29.60
2016,06,05,12,39,29.60
2016,06,05,12,40,29.70
2016,06,05,12,41,29.70
2016,06,05,12,42,29.70
2016,06,05,12,43,29.70
2016,06,05,12,44,29.60
2016,06,05,12,45,29.60
2016,06,05,12,46,29.60
2016,06,05,12,47,29.70
2016,06,05,12,48,29.70
2016,06,05,12,49,29.70
2016,06,05,12,50,29.80
2016,06,05,12,51,29.80
2016,06,05,12,52,29.90
2016,06,05,12,53,29.90
2016,06,05,12,54,29.90
2016,06,05,12,55,29.80
2016,06,05,12,56,29.70
2016,06,05,12,57,29.70
2016,06,05,12,58,29.70
2016,06,05,12,59,29.70
2016,06,05,13,00,29.80
2016,06,05,13,01,29.80
2016,06,05,13,02,29.80
2016,06,05,13,03,29.80
2016,06,05,13,04,29.90
2016,06,05,13,05,30.00
2016,06,05,13,06,30.10
2016,06,05,13,07,30.20
2016,06,05,13,08,30.30
2016,06,05,13,09,30.40
2016,06,05,13,10,30.50
2016,06,05,13,11,30.60
2016,06,05,13,12,30.70
2016,06,05,13,13,30.80
2016,06,05,13,14,30.80
2016,06,05,13,15,30.80
2016,06,05,13,16,30.80
2016,06,05,13,17,30.60
2016,06,05,13,18,30.60
2016,06,05,13,19,30.60
2016,06,05,13,20,30.60
2016,06,05,13,21,30.60
2016,06,05,13,22,30.60
2016,06,05,13,23,30.60
2016,06,05,13,24,30.60
2016,06,05,13,25,30.50
2016,06,05,13,26,30.40
2016,06,05,13,27,30.40
2016,06,05,13,28,30.30
2016,06,05,13,29,30.30
2016,06,05,13,30,30.30
2016,06,05,13,31,30.30
2016,06,05,13,32,30.30
2016,06,05,13,33,30.30
2016,06,05,13,34,30.30
2016,06,05,13,35,30.30
2016,06,05,13,36,30.40
2016,06,05,13,37,30.60
2016,06,05,13,38,30.70
2016,06,05,13,39,30.90
2016,06,05,13,40,31.00
2016,06,05,13,41,31.10
2016,06,05,13,42,31.20
2016,06,05,13,43,31.20
2016,06,05,13,44,31.20
2016,06,05,13,45,31.30
2016,06,05,13,46,31.20
2016,06,05,13,47,31.20
2016,06,05,13,48,31.30
2016,06,05,13,49,31.30
2016,06,05,13,50,31.30
2016,06,05,13,51,31.20
2016,06,05,13,52,31.20
2016,06,05,13,53,31.20
2016,06,05,13,54,31.10
2016,06,05,13,55,31.00
2016,06,05,13,56,31.00
2016,06,05,13,57,31.00
2016,06,05,13,58,31.10
2016,06,05,13,59,31.10
2016,06,05,14,00,31.10
2016,06,05,14,01,31.20
2016,06,05,14,02,31.30
2016,06,05,14,03,31.40
2016,06,05,14,04,31.50
2016,06,05,14,05,31.50
2016,06,05,14,06,31.60
2016,06,05,14,07,31.60
2016,06,05,14,08,31.60
2016,06,05,14,09,31.60
2016,06,05,14,10,31.70
2016,06,05,14,11,31.80
2016,06,05,14,12,31.90
2016,06,05,14,13,32.00
2016,06,05,14,14,32.00
2016,06,05,14,15,31.90
2016,06,05,14,16,31.80
2016,06,05,14,17,31.70
2016,06,05,14,18,31.70
2016,06,05,14,19,31.80
2016,06,05,14,20,31.80
2016,06,05,14,21,31.80
2016,06,05,14,22,31.80
2016,06,05,14,23,31.90
2016,06,05,14,24,32.00
2016,06,05,14,25,32.10
2016,06,05,14,26,32.20
2016,06,05,14,27,32.20
2016,06,05,14,28,32.20
2016,06,05,14,29,32.20
2016,06,05,14,30,32.20
2016,06,05,14,31,32.20
2016,06,05,14,32,32.10
2016,06,05,14,33,31.80
2016,06,05,14,34,31.60
2016,06,05,14,35,31.50
2016,06,05,14,36,31.40
2016,06,05,14,37,31.40
2016,06,05,14,38,31.40
2016,06,05,14,39,31.50
2016,06,05,14,40,31.60
2016,06,05,14,41,31.60
2016,06,05,14,42,31.70
2016,06,05,14,43,31.70
2016,06,05,14,44,31.70
2016,06,05,14,45,31.70
2016,06,05,14,46,31.80
2016,06,05,14,47,31.80
2016,06,05,14,48,31.80
2016,06,05,14,49,31.80
2016,06,05,14,50,31.80
2016,06,05,14,51,31.80
2016,06,05,14,52,31.80
2016,06,05,14,53,31.80
2016,06,05,14,54,31.70
2016,06,05,14,55,31.70
2016,06,05,14,56,31.80
2016,06,05,14,57,31.80
2016,06,05,14,58,31.80
2016,06,05,14,59,31.70
2016,06,05,15,00,31.60
2016,06,05,15,01,31.50
2016,06,05,15,02,31.60
2016,06,05,15,03,31.60
2016,06,05,15,04,31.60
2016,06,05,15,05,31.70
2016,06,05,15,06,31.70
2016,06,05,15,07,31.60
2016,06,05,15,08,31.70
2016,06,05,15,09,31.70
2016,06,05,15,10,31.70
2016,06,05,15,11,31.70
2016,06,05,15,12,31.70
2016,06,05,15,13,31.70
2016,06,05,15,14,31.70
2016,06,05,15,15,31.70
2016,06,05,15,16,31.80
2016,06,05,15,17,31.90
2016,06,05,15,18,31.90
2016,06,05,15,19,31.90
2016,06,05,15,20,31.90
2016,06,05,15,21,32.00
2016,06,05,15,22,32.00
2016,06,05,15,23,31.90
2016,06,05,15,24,32.00
2016,06,05,15,25,32.10
2016,06,05,15,26,32.20
2016,06,05,15,27,32.20
2016,06,05,15,28,32.10
2016,06,05,15,29,32.10
2016,06,05,15,30,32.10
2016,06,05,15,31,32.00
2016,06,05,15,32,32.00
2016,06,05,15,33,32.00
2016,06,05,15,34,31.90
2016,06,05,15,35,31.90
2016,06,05,15,36,31.90
2016,06,05,15,37,31.80
2016,06,05,15,38,31.70
2016,06,05,15,39,31.70
2016,06,05,15,40,31.50
2016,06,05,15,41,31.40
2016,06,05,15,42,31.40
2016,06,05,15,43,31.40
2016,06,05,15,44,31.40
2016,06,05,15,45,31.50
2016,06,05,15,46,31.50
2016,06,05,15,47,31.60
2016,06,05,15,48,31.70
2016,06,05,15,49,31.70
2016,06,05,15,50,31.80
2016,06,05,15,51,31.90
2016,06,05,15,52,32.00
2016,06,05,15,53,32.00
2016,06,05,15,54,31.90
2016,06,05,15,55,31.80
2016,06,05,15,56,31.70
2016,06,05,15,57,31.60
2016,06,05,15,58,31.50
2016,06,05,15,59,31.50
2016,06,05,16,00,31.50
2016,06,05,16,01,31.40
2016,06,05,16,02,31.40
2016,06,05,16,03,31.40
2016,06,05,16,04,31.40
2016,06,05,16,05,31.40
2016,06,05,16,06,31.40
2016,06,05,16,07,31.40
2016,06,05,16,08,31.40
2016,06,05,16,09,31.40
2016,06,05,16,10,31.40
2016,06,05,16,11,31.30
2016,06,05,16,12,31.30
2016,06,05,16,13,31.30
2016,06,05,16,14,31.30
2016,06,05,16,15,31.30
2016,06,05,16,16,31.30
2016,06,05,16,17,31.30
2016,06,05,16,18,31.30
2016,06,05,16,19,31.30
2016,06,05,16,20,31.30
2016,06,05,16,21,31.20
2016,06,05,16,22,31.20
2016,06,05,16,23,31.10
2016,06,05,16,24,31.10
2016,06,05,16,25,31.10
2016,06,05,16,26,31.00
2016,06,05,16,27,31.00
2016,06,05,16,28,31.10
2016,06,05,16,29,31.10
2016,06,05,16,30,31.00
2016,06,05,16,31,31.10
2016,06,05,16,32,31.10
2016,06,05,16,33,31.10
2016,06,05,16,34,31.00
2016,06,05,16,35,31.00
2016,06,05,16,36,31.00
2016,06,05,16,37,31.00
2016,06,05,16,38,30.90
2016,06,05,16,39,30.90
2016,06,05,16,40,30.80
2016,06,05,16,41,30.80
2016,06,05,16,42,30.80
2016,06,05,16,43,30.80
2016,06,05,16,44,30.80
2016,06,05,16,45,30.80
2016,06,05,16,46,30.80
2016,06,05,16,47,30.70
2016,06,05,16,48,30.70
2016,06,05,16,49,30.60
2016,06,05,16,50,30.50
2016,06,05,16,51,30.40
2016,06,05,16,52,30.40
2016,06,05,16,53,30.40
2016,06,05,16,54,30.30
2016,06,05,16,55,30.30
2016,06,05,16,56,30.30
2016,06,05,16,57,30.30
2016,06,05,16,58,30.30
2016,06,05,16,59,30.30
2016,06,05,17,00,30.20
2016,06,05,17,01,30.20
2016,06,05,17,02,30.20
2016,06,05,17,03,30.20
2016,06,05,17,04,30.10
2016,06,05,17,05,30.10
2016,06,05,17,06,30.00
2016,06,05,17,07,30.00
2016,06,05,17,08,29.90
2016,06,05,17,09,29.80
2016,06,05,17,10,29.80
2016,06,05,17,11,29.70
2016,06,05,17,12,29.70
2016,06,05,17,13,29.70
2016,06,05,17,14,29.70
2016,06,05,17,15,29.60
2016,06,05,17,16,29.60
2016,06,05,17,17,29.70
2016,06,05,17,18,29.70
2016,06,05,17,19,29.60